Погода в Устье Видлицы

Россия / Республика Карелия     61°10′49″N   32°23′12″E
темп.,
°C
ветер,
м/с
пор.,
м/с
влажн.,
%
обл.,
%
осадки,
мм/ч
давл.,
гПа
погр.,
м
26 июля, пн
пн2600:00+15зюз227537 0.0 101826
03:00+16з127497 0.0 101953
06:00+17з257654 0.0 1019144
09:00+21з25619 0.3 1019512
12:00+26з344114 0.0 10191595
15:00+26зюз453814 0.0 10191376
18:00+26з453823 0.0 10181185
21:00+19в017329 0.2 102011
27 июля, вт
вт2700:00+15вюв119136 0.6 102014
03:00+14вюв119414 1.6 102014
06:00+16юв12915 0.3 102047
09:00+21ююв12665 0.4 1020339
12:00+27юз124014 0.0 10191171
15:00+28зюз433645 0.0 10181798
18:00+24зюз244923 0.3 1017268
21:00+19всв23795 0.6 101761
28 июля, ср
ср2800:00+16юв238799 0.0 101754
03:00+15вюв24920 0.0 101683
06:00+16вюв13845 0.0 101483
09:00+24ююв12505 0.0 1013426
12:00+28ююз22340 0.0 10111387
15:00+29юз323115 0.0 10092019
18:00+28з22315 0.0 10071205
21:00+22ссв115317 0.0 100511
29 июля, чт
чт2900:00+18юз2265100 0.0 100525
03:00+17юз116788 0.0 100412
06:00+18ююз2585100 0.0 1003163
09:00+19ююз3786100 1.6 1002384
12:00+18ююз3795100 3.4 1001463
15:00+20юз51182100 4.9 1000801
18:00+21юз511746 1.9 998939
21:00+17зюз614915 5.8 997762
30 июля, пт
пт3000:00+16зюз5138854 0.3 998949
03:00+17зюз6138190 0.3 9981113
06:00+17зюз612752 0.0 999833
09:00+20з611624 0.0 1000886
12:00+23зюз6104784 0.0 10021602
15:00+24зюз5945100 0.0 10021745
18:00+23зюз494868 0.0 10021351
21:00+17ю247493 0.0 100281